Weather History for Garden City, KS

Change the Weather History Date:

Saturday, November 9, 2013

  Actual Average Record
Temperature  
Mean Temperature 48 °F 45 °F  
Max Temperature 62 °F 59 °F 82 °F (2012)
Min Temperature 34 °F 31 °F 12 °F (1950)
Degree Days  
Heating Degree Days 17 20  
Month to date heating degree days 150 164  
Since 1 July heating degree days 514 554  
Cooling Degree Days 0 0  
Month to date cooling degree days 0 0  
Year to date cooling degree days 1591 1298  
Moisture  
Dew Point 34 °F    
Average Humidity 63    
Maximum Humidity 89    
Minimum Humidity 36    
Precipitation  
Precipitation 0.00 in 0.02 in 1.17 in (1972)
Month to date precipitation 0.85 0.19  
Year to date precipitation 14.71 18.59  
Sea Level Pressure  
Sea Level Pressure 30.11 in    
Wind  
Wind Speed 12 mph (ENE)    
Max Wind Speed 24 mph    
Max Gust Speed 29 mph    
Visibility 10 miles    
Events      
T = Trace of Precipitation, MM = Missing Value Source: NWS Daily Summary

Daily Weather History Graph

Daily Weather History Graph

Search for Another Location

Airport:

Trip Planner

Search our weather history database for the weather conditions in past years. The results will help you decide how hot, cold, wet, or windy it might be!

Date:

Astronomy

Nov. 09, 2013 Rise Set
Actual Time 7:17 AM CST 5:35 PM CST
Civil Twilight 6:49 AM CST 6:03 PM CST
Nautical Twilight 6:18 AM CST 6:34 PM CST
Astronomical Twilight 5:47 AM CST 7:05 PM CST
Moon 12:56 PM CST (11/9) No Moon Set
Length of Visible Light 11h 13m
Length of Day
10h 18m
Waxing Crescent, 44% of the Moon is Illuminated
Nov 9
Waxing Crescent
Nov 9
First Quarter
Nov 17
Full
Nov 25
Last Quarter
Dec 2
New

Hourly Weather History & Observations

Time (CST) Temp. Windchill Dew Point Humidity Pressure Visibility Wind Dir Wind Speed Gust Speed Precip Events Conditions
12:54 AM 44.1 °F 39.0 °F 32.0 °F 63% 29.90 in 10.0 mi ESE 9.2 mph - N/A   Clear
1:54 AM 41.0 °F 37.1 °F 32.0 °F 70% 29.91 in 10.0 mi East 5.8 mph - N/A   Clear
2:54 AM 37.0 °F 31.0 °F 30.9 °F 79% 29.94 in 10.0 mi NNE 8.1 mph - N/A   Clear
3:54 AM 36.0 °F 29.6 °F 30.0 °F 79% 29.95 in 10.0 mi North 8.1 mph - N/A   Clear
4:54 AM 35.1 °F 28.6 °F 30.0 °F 82% 29.98 in 10.0 mi North 8.1 mph - N/A   Clear
5:54 AM 37.9 °F 30.0 °F 32.0 °F 79% 30.02 in 10.0 mi North 12.7 mph - N/A   Clear
6:54 AM 36.0 °F 27.1 °F 32.0 °F 86% 30.06 in 10.0 mi North 13.8 mph - N/A   Clear
7:54 AM 39.0 °F 30.6 °F 33.1 °F 79% 30.08 in 10.0 mi NNE 15.0 mph - N/A   Clear
8:54 AM 46.0 °F 38.5 °F 36.0 °F 68% 30.12 in 10.0 mi NNE 19.6 mph - N/A   Clear
9:54 AM 50.0 °F - 36.0 °F 59% 30.12 in 10.0 mi NE 18.4 mph 28.8 mph N/A   Clear
10:54 AM 54.0 °F - 35.1 °F 49% 30.13 in 10.0 mi NE 18.4 mph 27.6 mph N/A   Clear
11:54 AM 57.9 °F - 34.0 °F 41% 30.13 in 10.0 mi ENE 18.4 mph - N/A   Clear
12:54 PM 60.1 °F - 35.1 °F 39% 30.12 in 10.0 mi East 18.4 mph - N/A   Clear
1:54 PM 60.1 °F - 34.0 °F 38% 30.11 in 10.0 mi ENE 15.0 mph - N/A   Clear
2:54 PM 61.0 °F - 35.1 °F 38% 30.13 in 10.0 mi East 17.3 mph 23.0 mph N/A   Clear
3:54 PM 60.1 °F - 35.1 °F 39% 30.14 in 10.0 mi East 15.0 mph - N/A   Clear
4:54 PM 57.9 °F - 36.0 °F 44% 30.16 in 10.0 mi East 9.2 mph - N/A   Clear
5:54 PM 50.0 °F - 37.0 °F 61% 30.19 in 10.0 mi East 6.9 mph - N/A   Clear
6:54 PM 46.9 °F - 36.0 °F 66% 30.22 in 10.0 mi East 6.9 mph - N/A   Clear
7:54 PM 45.0 °F 40.1 °F 36.0 °F 71% 30.24 in 10.0 mi East 9.2 mph - N/A   Clear
8:54 PM 43.0 °F 38.8 °F 36.0 °F 76% 30.26 in 10.0 mi East 6.9 mph - N/A   Clear
9:54 PM 43.0 °F 38.2 °F 37.0 °F 80% 30.27 in 10.0 mi ESE 8.1 mph - N/A   Clear
10:54 PM 41.0 °F 38.0 °F 36.0 °F 82% 30.28 in 10.0 mi East 4.6 mph - N/A   Clear
11:54 PM 39.0 °F 34.8 °F 36.0 °F 89% 30.27 in 10.0 mi East 5.8 mph - N/A   Clear